Satellite-Ground Cal/Val Site Overpasses Predictions

Prediction of Satellite NPP Overpassing Cal/Val Site: Antarctic Dome C

Ground Cal/Val Site Location: Latitude: -75.10, Longitude: 123.35; Satellite-Ground Site NADIR distance within 100 km.

Table of predicted overpasses for the next 14.0 days since TLE Epoch: 12/27/2013
Interval Starting Time Ending Time Minimum Distance Time Minimum Distance (km)
1 12/28/2013 07:27:34 12/28/2013 07:28:01 12/28/2013 07:27:48 40.71
2 12/31/2013 14:51:05 12/31/2013 14:51:34 12/31/2013 14:51:19 9.64
3 01/02/2014 07:33:56 01/02/2014 07:34:26 01/02/2014 07:34:11 4.01
4 01/05/2014 14:57:28 01/05/2014 14:57:56 01/05/2014 14:57:42 27.33
5 01/06/2014 14:38:46 01/06/2014 14:39:03 01/06/2014 14:38:54 79.76
6 01/07/2014 07:40:20 01/07/2014 07:40:48 01/07/2014 07:40:34 32.09
7 01/08/2014 07:21:36 01/08/2014 07:21:54 01/08/2014 07:21:45 77.87


NCC Satellite Cal/Val Overpasses Prediction Service
